Wind_Speed
23 22 20 20 19 17 17 16 15 15 15 15 15 16 15 15 16 15 14 13 13 12 12 12 13 15 15 18 20 21 20 17 16 14 15 16 18 19 20 20 20 18 20 18 16
26 26 25 24 22 22 21 20 19 19 19 18 18 19 18 18 18 17 17 17 17 17 18 17 18 18 20 21 22 23 21 19 18 18 19 19 20 21 20 18 21 22 19 17 17
30 29 28 27 26 25 25 24 23 22 21 20 20 20 21 21 21 22 22 22 22 22 22 23 23 23 24 24 24 22 19 19 21 21 22 22 24 23 23 21 21 21 25 23 20
34 33 32 31 30 30 29 28 27 25 24 22 22 21 22 23 25 25 25 24 25 26 26 26 26 27 28 28 24 18 19 21 25 24 24 24 24 24 26 27 28 25 23 25 27
39 38 37 36 34 34 33 32 30 29 27 26 24 24 23 24 26 25 26 26 27 29 30 31 31 32 32 28 21 18 24 25 26 28 27 26 26 26 28 29 29 30 28 25 25
42 42 40 39 38 37 37 36 35 33 32 30 29 27 27 28 28 29 31 32 33 34 34 33 28 26 24 23 23 25 25 26 27 29 27 28 28 27 29 29 28 27 27 29 29
44 43 42 41 40 39 38 37 36 35 34 33 32 31 30 33 33 34 35 34 33 31 29 28 29 30 29 29 28 29 27 26 28 28 31 30 28 29 30 30 29 29 31 31 30
44 45 45 44 43 43 42 41 40 38 37 36 35 34 33 34 36 37 34 32 31 31 32 33 33 31 30 30 31 30 29 29 31 30 31 32 26 27 32 31 32 33 33 33 33
47 46 44 43 42 40 40 40 40 39 38 38 39 39 36 34 34 35 34 34 34 34 34 34 33 31 29 31 32 31 32 28 27 29 33 34 28 26 30 34 35 37 37 34 32
46 46 46 45 44 43 41 40 40 40 38 37 36 37 35 34 35 38 38 37 34 33 32 31 30 29 28 33 34 33 33 33 29 29 35 37 35 34 33 35 36 35 34 32 32
44 45 45 45 44 43 42 42 41 42 42 41 41 41 40 37 36 35 34 35 34 34 34 34 36 33 36 38 38 38 37 37 32 34 36 37 39 37 38 34 33 33 32 31 31
45 44 43 44 42 41 40 39 39 41 39 39 40 39 39 38 38 36 36 36 35 36 36 38 39 36 40 42 41 40 40 37 37 36 38 37 36 32 34 37 35 33 33 35 36
48 46 47 47 44 43 41 39 39 41 43 40 42 42 41 41 39 36 36 37 38 40 40 43 42 42 41 40 38 38 35 35 37 33 37 41 42 35 35 37 36 35 37 38 39
51 50 50 49 47 45 43 42 41 42 47 46 43 45 42 41 44 41 42 43 42 42 43 44 38 36 34 32 35 37 35 37 38 41 43 43 46 44 37 37 37 39 39 39 40
55 55 53 53 50 49 48 47 46 46 51 50 48 46 44 43 43 42 40 39 40 37 38 37 34 34 34 33 35 35 36 37 40 42 46 44 43 45 43 39 40 42 42 40 40
65 60 58 57 57 54 53 52 52 51 58 54 50 45 44 43 44 41 37 37 37 37 37 38 38 34 33 33 34 38 37 41 45 45 48 38 42 53 47 44 45 44 44 41 44
66 63 65 65 58 61 58 57 58 57 54 54 52 48 45 44 41 39 38 36 36 36 36 37 38 38 36 37 40 43 45 45 48 46 47 44 47 49 45 46 47 46 47 52 58
60 63 64 63 62 58 64 59 61 55 54 53 50 48 45 40 39 40 40 39 38 37 38 39 39 40 42 41 41 45 45 46 46 47 45 47 53 53 55 55 55 55 58 62 64
56 59 58 54 55 55 61 66 56 50 48 46 45 44 43 40 42 42 42 42 42 41 39 41 42 40 40 39 40 41 43 42 46 48 52 55 58 56 56 55 57 59 61 61 59
49 48 48 47 47 51 60 58 51 53 51 47 43 43 45 44 45 44 44 46 43 43 45 47 47 40 41 42 43 43 45 49 52 53 57 57 57 57 53 53 53 55 57 58 59
49 61 49 51 43 54 54 53 56 48 51 46 45 46 47 45 45 48 49 50 47 46 47 48 48 47 46 45 45 46 47 48 48 53 56 57 58 56 54 55 57 58 59 61 62
59 57 59 60 58 61 64 57 60 51 50 48 47 48 51 53 53 53 52 51 51 51 48 46 53 56 51 53 50 46 45 47 51 54 56 60 61 60 58 59 59 59 61 62 65
64 66 63 61 67 68 66 63 61 56 55 54 53 54 55 55 58 58 57 54 52 49 50 48 56 59 59 55 52 51 48 49 53 56 62 62 62 57 58 59 61 62 64 65 66
65 69 71 71 75 70 68 69 69 66 62 58 59 60 59 61 62 63 61 57 56 55 55 55 59 62 59 53 53 53 53 54 57 62 62 62 58 60 63 63 63 64 65 68 68
67 70 72 72 71 68 63 72 69 65 67 65 64 66 65 66 68 69 67 59 56 56 54 54 55 55 54 53 54 57 59 63 66 63 64 61 63 62 63 64 66 68 68 66 66
71 68 68 70 73 70 72 71 72 72 69 68 69 70 71 69 70 57 55 57 58 60 53 54 59 57 59 55 58 60 62 65 64 63 67 69 69 65 65 65 66 64 64 65 64
61 61 64 65 59 63 61 66 71 73 75 74 69 63 64 64 59 53 51 52 60 62 57 57 55 55 58 59 61 67 66 62 64 64 66 70 66 64 64 64 63 63 63 64 65
Wind_Direction
228 229 229 233 234 235 234 237 242 246 250 253 256 257 253 245 239 238 240 246 253 259 265 272 282 290 296 300 307 307 298 294 290 296 296 301 302 305 309 309 311 309 312 316 312
232 233 233 235 239 243 243 245 250 253 255 258 257 255 253 249 246 247 249 255 260 264 271 277 283 289 294 299 305 301 293 288 285 286 291 298 304 307 307 303 305 307 307 310 319
233 236 238 240 243 246 250 253 255 257 258 261 261 254 252 252 252 255 261 265 269 271 275 280 283 287 289 294 299 296 288 285 284 283 287 295 301 308 303 304 298 303 308 312 313
236 237 240 243 245 248 251 253 255 257 258 261 263 258 253 254 255 256 260 265 268 272 275 278 283 285 288 293 293 286 286 287 286 283 284 289 296 306 302 301 303 304 306 309 308
241 243 243 245 247 250 253 255 257 258 258 258 259 257 255 256 259 262 265 267 271 275 278 281 283 285 288 288 279 279 286 285 285 286 290 293 296 299 299 298 302 303 304 304 305
242 245 246 248 249 251 254 256 258 259 259 259 257 257 256 257 261 266 270 272 274 277 280 281 282 283 284 282 279 280 278 276 276 279 282 285 289 293 291 293 298 300 305 308 303
244 246 247 248 250 252 254 256 259 261 262 261 259 258 257 259 263 270 272 274 274 274 275 276 278 279 280 281 283 284 282 281 278 281 283 282 287 289 289 292 294 297 301 302 301
246 247 249 251 252 254 256 258 259 261 262 263 263 261 261 264 268 271 270 268 269 271 273 275 278 279 282 283 282 281 281 281 286 288 286 287 286 292 289 293 292 294 298 300 297
245 247 249 251 252 254 256 259 260 260 261 264 265 265 265 265 267 266 266 267 269 271 273 275 278 281 284 284 281 283 286 286 285 287 287 285 286 280 285 288 289 291 295 294 292
244 246 247 250 252 254 256 258 259 261 262 262 263 265 264 263 264 266 268 269 269 271 273 275 279 284 288 282 284 283 285 284 285 281 279 284 286 283 282 283 288 290 291 292 291
244 246 247 249 250 252 253 255 260 261 261 261 263 262 266 264 263 264 268 271 272 272 271 276 280 287 280 280 283 283 282 281 283 279 283 285 290 295 294 298 293 293 291 286 281
244 245 246 248 249 251 253 256 257 260 259 261 263 264 264 264 264 266 268 269 270 270 272 274 275 278 276 278 279 279 278 282 281 281 284 287 287 288 293 293 292 291 288 287 285
244 246 246 247 248 250 252 255 257 260 262 258 261 262 263 265 266 268 268 267 268 269 270 268 272 274 274 273 274 274 278 279 279 279 281 288 287 291 292 287 286 287 289 292 293
243 244 246 247 249 250 251 253 257 261 262 257 257 259 263 267 268 274 270 266 264 270 267 268 269 270 271 273 274 280 280 282 286 289 291 289 291 293 290 289 290 288 288 285 286
244 245 246 246 252 254 250 253 257 261 265 266 258 258 262 267 272 274 271 265 265 266 268 266 265 268 273 272 277 279 280 280 280 283 285 286 291 292 286 287 284 283 283 283 280
238 245 249 250 249 249 253 253 255 258 260 263 267 264 264 272 274 272 268 265 265 267 269 272 274 272 273 275 274 275 275 278 280 281 281 289 284 290 292 290 291 289 289 286 285
251 241 246 249 250 248 246 252 255 258 261 262 265 269 267 269 267 264 262 261 262 265 269 269 273 277 276 272 274 274 276 278 277 279 281 281 283 289 291 294 295 291 285 287 292
253 248 247 253 258 252 252 253 260 262 262 263 265 267 268 265 261 261 261 260 262 264 266 269 271 272 274 274 273 276 276 275 278 275 278 283 287 296 295 295 294 288 287 290 290
246 248 247 249 253 257 257 258 259 260 260 259 261 262 261 258 261 262 265 267 267 270 270 272 272 273 270 271 274 277 279 281 277 281 283 287 287 288 288 288 287 285 285 285 284
242 243 243 246 247 249 252 251 253 254 256 254 257 259 257 259 261 265 267 268 272 275 276 274 272 265 266 269 273 278 279 276 279 280 279 283 285 287 288 286 283 282 281 281 280
240 243 240 245 248 243 246 255 253 254 259 256 262 257 259 260 264 266 266 266 272 274 274 274 270 271 272 276 278 276 276 279 278 277 280 284 283 284 284 285 284 281 279 277 275
238 241 243 247 233 238 243 246 249 250 251 257 257 254 258 262 263 262 261 267 269 270 267 264 268 267 276 278 279 280 280 281 278 281 278 275 283 285 288 286 283 281 277 276 274
242 246 243 241 235 237 237 247 238 248 244 253 254 254 257 254 255 257 261 263 265 263 261 261 264 267 270 275 278 282 280 277 278 276 276 276 286 287 284 282 279 277 276 275 274
242 244 239 235 234 236 238 237 246 246 244 250 251 253 253 251 253 258 261 261 261 261 262 265 267 270 277 281 283 283 282 281 277 276 281 281 284 284 280 278 278 277 276 275 277
238 240 238 239 235 238 236 237 240 245 247 251 248 253 251 250 255 257 258 260 260 261 264 267 276 281 283 283 282 285 286 284 280 281 278 284 281 281 279 279 278 278 277 277 278
231 234 238 239 235 240 239 238 244 244 248 248 246 249 250 252 256 259 263 265 264 263 271 274 279 284 285 283 281 283 286 280 282 284 284 283 280 282 280 277 277 280 280 282 284
238 237 238 240 237 238 236 236 235 239 240 240 239 241 245 253 258 266 269 269 258 261 269 269 279 281 280 281 279 277 284 283 281 280 279 278 281 278 279 278 278 279 281 282 283
Height
5858 5859 5861 5863 5864 5865 5866 5867 5868 5869 5869 5870 5870 5871 5871 5872 5872 5873 5873 5873 5873 5873 5873 5873 5873 5873 5872 5871 5870 5869 5868 5867 5866 5865 5865 5864 5864 5863 5861 5858 5857 5856 5855 5857 5857
5853 5855 5857 5858 5860 5862 5863 5864 5865 5866 5866 5867 5867 5867 5868 5869 5869 5870 5870 5870 5870 5870 5870 5870 5869 5869 5869 5868 5867 5865 5864 5864 5863 5863 5862 5862 5861 5860 5859 5857 5854 5852 5853 5853 5854
5847 5850 5852 5854 5856 5857 5859 5860 5861 5862 5863 5863 5864 5864 5865 5865 5866 5865 5866 5866 5866 5866 5866 5866 5866 5866 5865 5864 5864 5862 5861 5860 5859 5860 5859 5859 5857 5857 5854 5853 5852 5852 5849 5850 5851
5841 5843 5846 5848 5850 5852 5853 5854 5856 5857 5858 5859 5859 5860 5860 5861 5862 5861 5862 5862 5861 5861 5862 5861 5861 5861 5860 5860 5859 5859 5857 5856 5854 5855 5855 5855 5854 5853 5850 5848 5846 5849 5850 5849 5846
5835 5837 5839 5841 5843 5845 5847 5848 5849 5851 5852 5854 5854 5855 5856 5856 5856 5857 5857 5857 5857 5856 5856 5856 5856 5855 5855 5854 5855 5855 5853 5852 5850 5849 5851 5851 5850 5849 5846 5843 5844 5843 5844 5844 5842
5827 5830 5832 5835 5836 5838 5840 5841 5842 5844 5845 5847 5848 5849 5851 5851 5851 5850 5851 5851 5851 5850 5850 5849 5849 5849 5849 5849 5850 5850 5850 5848 5847 5846 5846 5846 5846 5846 5842 5840 5839 5839 5838 5837 5836
5820 5822 5825 5827 5829 5831 5832 5834 5835 5837 5838 5839 5841 5842 5845 5845 5844 5844 5844 5844 5844 5844 5844 5844 5844 5844 5845 5844 5843 5843 5844 5843 5842 5843 5840 5841 5842 5840 5836 5836 5834 5833 5832 5831 5830
5811 5814 5816 5819 5821 5823 5824 5826 5827 5829 5830 5831 5833 5834 5836 5838 5837 5837 5837 5837 5838 5838 5838 5838 5837 5838 5838 5838 5837 5836 5837 5838 5836 5835 5834 5833 5838 5836 5831 5830 5828 5827 5827 5826 5823
5802 5805 5807 5810 5812 5814 5816 5817 5819 5821 5822 5823 5825 5826 5828 5830 5830 5830 5830 5831 5832 5832 5832 5831 5831 5832 5833 5830 5829 5828 5827 5830 5830 5828 5825 5823 5828 5829 5825 5822 5822 5821 5821 5820 5818
5793 5796 5798 5801 5803 5806 5808 5809 5811 5813 5814 5815 5816 5818 5821 5823 5823 5823 5823 5824 5824 5824 5824 5824 5823 5824 5825 5822 5821 5821 5820 5820 5823 5823 5818 5816 5817 5817 5820 5818 5817 5815 5813 5811 5810
5784 5787 5790 5791 5794 5797 5799 5801 5804 5804 5805 5807 5808 5808 5810 5813 5814 5815 5816 5817 5817 5818 5817 5816 5815 5818 5815 5814 5814 5813 5812 5811 5814 5812 5809 5810 5808 5810 5808 5807 5805 5806 5805 5803 5802
5774 5777 5780 5782 5785 5787 5789 5791 5793 5794 5797 5797 5798 5800 5801 5803 5805 5807 5808 5809 5809 5809 5809 5809 5808 5810 5808 5807 5806 5805 5803 5805 5803 5804 5799 5798 5798 5800 5799 5798 5795 5794 5793 5794 5793
5765 5768 5770 5772 5776 5779 5780 5782 5783 5784 5784 5790 5789 5791 5792 5794 5796 5799 5801 5800 5801 5800 5801 5798 5800 5800 5800 5799 5798 5795 5796 5795 5794 5794 5790 5789 5787 5791 5790 5787 5786 5784 5783 5782 5782
5754 5757 5760 5763 5767 5769 5772 5772 5773 5774 5772 5778 5781 5779 5784 5785 5785 5791 5790 5791 5790 5791 5790 5789 5792 5789 5790 5792 5790 5789 5790 5788 5788 5786 5785 5784 5782 5782 5780 5778 5778 5776 5776 5775 5773
5743 5746 5749 5752 5756 5760 5761 5761 5763 5764 5760 5764 5768 5772 5775 5778 5777 5778 5778 5778 5779 5781 5782 5781 5781 5782 5781 5781 5779 5780 5779 5779 5776 5775 5774 5774 5773 5770 5769 5771 5771 5769 5767 5765 5763
5728 5733 5737 5741 5745 5746 5748 5750 5751 5753 5745 5750 5753 5761 5765 5766 5765 5765 5767 5768 5769 5770 5771 5772 5771 5772 5772 5772 5771 5770 5769 5768 5766 5765 5762 5769 5763 5757 5760 5758 5756 5755 5754 5753 5750
5715 5718 5725 5729 5734 5730 5732 5736 5737 5736 5739 5743 5744 5747 5751 5754 5755 5755 5756 5758 5758 5760 5761 5761 5762 5762 5762 5761 5762 5760 5759 5758 5756 5757 5755 5754 5751 5750 5748 5746 5745 5745 5743 5741 5738
5702 5705 5710 5717 5717 5717 5719 5719 5720 5724 5730 5731 5734 5736 5737 5739 5741 5743 5746 5747 5749 5749 5748 5749 5752 5751 5752 5751 5749 5749 5749 5748 5747 5746 5746 5745 5740 5743 5738 5735 5734 5732 5731 5728 5725
5688 5691 5695 5702 5705 5705 5705 5700 5707 5714 5715 5719 5721 5722 5726 5728 5729 5731 5733 5736 5737 5738 5740 5738 5739 5740 5740 5740 5740 5738 5737 5738 5733 5732 5730 5730 5728 5729 5726 5724 5721 5720 5716 5713 5711
5675 5677 5682 5689 5693 5692 5687 5689 5697 5699 5701 5705 5710 5713 5715 5716 5717 5720 5721 5723 5725 5727 5727 5727 5726 5728 5728 5728 5727 5727 5726 5722 5719 5715 5710 5714 5715 5711 5714 5712 5709 5706 5704 5700 5696
5662 5663 5670 5678 5678 5675 5669 5679 5682 5687 5689 5694 5698 5700 5703 5704 5707 5708 5710 5712 5714 5716 5715 5714 5713 5716 5714 5714 5714 5713 5711 5710 5709 5702 5696 5696 5698 5697 5697 5697 5695 5692 5689 5685 5680
5647 5647 5657 5663 5661 5657 5661 5667 5671 5674 5679 5680 5683 5686 5689 5691 5692 5694 5696 5700 5702 5703 5703 5702 5700 5698 5701 5698 5698 5700 5699 5698 5692 5691 5685 5678 5683 5681 5682 5679 5676 5676 5673 5668 5664
5633 5636 5637 5643 5639 5645 5649 5652 5656 5661 5665 5667 5670 5673 5676 5678 5678 5680 5683 5685 5687 5687 5687 5688 5684 5686 5685 5688 5687 5685 5686 5684 5678 5674 5668 5668 5668 5669 5666 5661 5660 5656 5653 5650 5646
5618 5617 5619 5623 5626 5633 5637 5639 5642 5647 5651 5654 5657 5660 5661 5662 5665 5668 5671 5672 5673 5674 5672 5670 5669 5667 5670 5672 5668 5668 5669 5667 5662 5656 5658 5653 5656 5653 5649 5647 5643 5639 5634 5630 5629
5598 5600 5606 5609 5615 5621 5624 5627 5630 5632 5636 5640 5641 5645 5647 5648 5651 5652 5655 5657 5659 5657 5657 5654 5652 5651 5653 5654 5651 5653 5654 5648 5643 5642 5636 5641 5639 5642 5636 5630 5625 5620 5617 5615 5610
5584 5588 5594 5600 5603 5607 5607 5610 5615 5618 5619 5624 5626 5630 5630 5632 5637 5639 5638 5640 5641 5642 5642 5639 5635 5635 5634 5636 5635 5634 5637 5631 5630 5626 5620 5619 5616 5625 5618 5613 5608 5604 5601 5598 5596
5571 5577 5582 5584 5588 5591 5593 5599 5604 5603 5605 5608 5614 5613 5614 5618 5619 5620 5621 5623 5625 5627 5626 5625 5621 5621 5616 5619 5616 5611 5622 5619 5615 5615 5609 5601 5604 5600 5599 5594 5592 5590 5588 5583 5580